[[{"header":{"parameterUnit":"m.s-1","parameterCategory":1,"la1":30.2991,"la2":30.254,"lo1":-89.0895,"lo2":-89.0444,"dy":0.0017,"dx":0.0017,"nx":28,"ny":28,"refTime":"2025-08-14T21:00:00:Z","depth":0,"parameterNumber":2,"parameterNumberName":"U-component_of_WINDS"},"data":[0,0,0,0,0,0,0,0,0,0,0,0,0,0,0,0,0,0,0,0,0,0,0,0,0,0,0,0,0,0,0,0,0,0,0,0,0,0,0,0,0,0,0,0,0,0,0,0,0,0,0,0,0,0,0,0,0,0,2.0195,2.0195,0,2.0151,2.0151,2.015,2.0053,2.0051,2.0049,2.0047,2.0004,2.0004,2.0005,0,0,0,0,0,0,0,0,0,0,0,0,0,2.0197,2.0198,2.0195,2.0195,2.0194,2.0151,2.0151,2.015,2.0053,2.0051,2.0048,2.0046,2.0004,2.0004,2.0005,0,0,0,0,0,0,0,0,0,0,0,0,0,2.018,2.0198,2.0195,2.014,2.0135,2.0152,2.0151,2.015,2.0054,2.0051,2.0048,2.0045,2.0003,2.0004,2.0005,2.0072,0,0,2.0009,2.0009,0,0,0,0,0,0,0,0,2.0181,2.018,2.0149,2.0144,2.0138,2.0104,2.0136,2.0124,2.0054,2.0085,2.0047,2.0043,2.004,2.0038,2.0036,2.007,2.0068,2.0009,2.0009,2.001,2.001,0,0,0,0,0,0,0,2.0182,2.0181,2.0178,2.0149,2.0142,2.0119,2.0113,2.0133,2.008,2.0082,2.0075,2.0071,2.0036,2.0035,2.0034,2.0067,2.0009,2.001,2.001,2.0011,2.0155,2.0158,0,0,0,0,0,0,2.0191,2.0183,2.0179,2.0176,2.0152,2.0121,2.0115,2.0118,2.0079,2.007,2.0073,2.0066,2.0035,2.0033,2.0032,2.0107,2.001,2.0011,2.0011,2.0152,2.0156,2.0159,0,0,0,0,0,0,2.0191,2.0191,2.0181,2.0178,2.0174,2.0125,2.0129,2.0119,2.0118,2.0073,2.0063,2.0082,2.0033,2.0031,2.0063,2.0105,2.0011,2.0012,2.0148,2.0153,2.0157,2.0259,0,0,0,0,0,0,2.0192,2.0192,2.0216,2.0179,2.0175,2.0211,2.0132,2.012,2.012,2.011,2.0078,2.007,2.003,2.0062,2.0064,2.0104,2.0013,2.0144,2.015,2.0156,2.0251,2.0266,2.0279,0,0,0,0,0,2.0192,2.0246,2.0218,2.0218,2.0204,2.0214,2.0212,2.0164,2.0124,2.0147,2.0119,2.0071,2.0101,2.0066,2.0068,2.0109,2.0141,2.0148,2.0155,2.0245,2.0263,2.0279,0,0,0,0,0,0,2.029,2.024,2.0208,2.0252,2.0238,2.0197,2.0226,2.0185,2.0183,2.0174,2.0116,2.011,2.015,2.0133,2.0095,2.0172,2.0113,2.0121,2.0181,2.0198,2.0212,2.0214,2.0014,0,0,0,0,0,2.0316,2.0328,2.0285,2.0328,2.0322,2.0276,2.0279,2.0244,2.0227,2.0221,2.0194,2.0181,2.0187,2.0192,2.0195,2.025,2.0241,2.0279,2.0293,2.0305,2.0312,2.034,2.0356,2.0183,2.0183,2.0182,0,0,2.0371,2.0346,2.0357,2.0347,2.0332,2.0346,2.0271,2.0289,2.0299,2.0223,2.0251,2.0233,2.0214,2.0257,2.0275,2.0244,2.0358,2.0314,2.0324,2.0324,2.0349,2.0365,2.038,2.0188,2.0187,2.0186,0,0,2.0478,2.046,2.0494,2.0481,2.0459,2.0429,2.0437,2.0404,2.0388,2.0415,2.0359,2.0371,2.0383,2.0372,2.0368,2.0474,2.043,2.0477,2.0549,2.0577,2.0591,2.0602,2.0639,2.0654,2.0485,2.0485,2.0485,0,2.0548,2.0566,2.0516,2.0538,2.0536,2.0469,2.0503,2.0493,2.0474,2.0474,2.0441,2.0455,2.0438,2.0478,2.0504,2.0504,2.0512,2.0479,2.0593,2.0604,2.0614,2.0649,2.0663,2.0491,2.049,2.049,2.0489,0,2.0655,2.0669,2.0699,2.0682,2.0683,2.0711,2.0666,2.0674,2.0641,2.0614,2.0644,2.0621,2.0619,2.0627,2.0593,2.0663,2.0644,2.0603,2.0542,2.0637,2.0669,2.0682,2.0499,2.0497,2.0495,2.0494,0,0,2.0817,2.0775,2.0786,2.0778,2.0752,2.0762,2.0788,2.0786,2.0793,2.0784,2.0804,2.0818,2.0779,2.0775,2.0741,2.0766,2.0851,2.0721,2.072,2.0745,2.0926,2.0956,2.0972,2.0823,2.0826,2.0828,2.0927,0,2.0916,2.0957,2.0914,2.0964,2.0976,2.0914,2.0937,2.0924,2.0901,2.0909,2.0884,2.0894,2.0843,2.084,2.0863,2.0836,2.0887,2.0829,2.0841,2.0842,2.0845,2.0988,2.1019,2.1114,2.0939,2.0941,2.0943,0,2.1035,2.1032,2.1083,2.1054,2.1058,2.1079,2.1074,2.1083,2.1067,2.1049,2.1046,2.1005,2.103,2.0973,2.1007,2.0968,2.0972,2.096,2.0963,2.096,2.0896,2.0988,2.1143,2.1157,2.0962,2.0961,2.0959,0,2.1148,2.1156,2.1187,2.1183,2.115,2.1167,2.1154,2.1136,2.1138,2.1135,2.1135,2.1136,2.1135,2.1137,2.1098,2.106,2.1136,2.1076,2.1121,2.1122,2.1137,2.1136,2.1294,2.1144,2.1144,2.1144,2.1143,0,2.1261,2.1294,2.1237,2.1256,2.1293,2.1245,2.1282,2.1263,2.1248,2.1263,2.1212,2.1227,2.1176,2.1186,2.1157,2.1189,2.119,2.1175,2.1166,2.1178,2.118,2.1178,2.1169,2.1147,2.1147,2.1146,2.1145,0,2.139,2.1354,2.1384,2.1352,2.1345,2.1373,2.1345,2.1362,2.1337,2.1357,2.1359,2.132,2.133,2.1292,2.1296,2.1276,2.1323,2.1305,2.1328,2.1322,2.1368,2.1364,2.1527,2.1546,2.1387,2.1389,2.139,0,2.1464,2.1488,2.1459,2.1465,2.1455,2.1466,2.1468,2.1423,2.1428,2.1413,2.1433,2.1439,2.144,2.146,2.1432,2.1435,2.1415,2.1472,2.1415,2.1426,2.1414,2.1412,2.1414,2.1483,2.1485,2.1487,2.1488,0,2.1597,2.1578,2.1582,2.1582,2.1586,2.1583,2.1576,2.1585,2.1537,2.1545,2.1554,2.1556,2.1561,2.1567,2.1565,2.1553,2.1513,2.1507,2.1517,2.1528,2.154,2.1533,2.1358,2.1503,2.1501,2.15,2.1499,2.1499,2.1699,2.1718,2.17,2.1708,2.1699,2.1695,2.1709,2.1687,2.1694,2.1693,2.1667,2.1682,2.1668,2.1661,2.1654,2.1665,2.1639,2.1654,2.1657,2.1661,2.1668,2.1541,2.1665,2.1665,2.1664,2.1664,2.1664,0,2.1828,2.1815,2.1822,2.1815,2.1821,2.1784,2.1776,2.1784,2.1797,2.1788,2.1791,2.1803,2.181,2.1785,2.1788,2.1802,2.1784,2.1805,2.1802,2.18,2.1693,2.1683,2.1819,2.1819,2.1819,2.1819,2.1819,2.1819,2.1896,2.1925,2.1905,2.1931,2.1917,2.1931,2.193,2.1926,2.1918,2.1934,2.1939,2.1923,2.1907,2.1909,2.1914,2.1907,2.191,2.1936,2.1922,2.1822,2.1807,2.1792,2.1782,2.1938,2.1938,2.2027,2.2028,2.2029]},{"header":{"parameterUnit":"m.s-1","parameterCategory":1,"la1":30.2991,"la2":30.254,"lo1":-89.0895,"lo2":-89.0444,"dy":0.0017,"dx":0.0017,"nx":28,"ny":28,"refTime":"2025-08-14T21:00:00:Z","depth":0,"parameterNumber":3,"parameterNumberName":"V-component_of_WINDS"},"data":[0,0,0,0,0,0,0,0,0,0,0,0,0,0,0,0,0,0,0,0,0,0,0,0,0,0,0,0,0,0,0,0,0,0,0,0,0,0,0,0,0,0,0,0,0,0,0,0,0,0,0,0,0,0,0,0,0,0,2.0836,2.0836,0,2.0885,2.0886,2.0886,2.0855,2.0854,2.0852,2.0851,2.0903,2.0906,2.0909,0,0,0,0,0,0,0,0,0,0,0,0,0,2.0714,2.0717,2.0836,2.0836,2.0837,2.0885,2.0886,2.0886,2.0855,2.0854,2.0852,2.085,2.0902,2.0906,2.0909,0,0,0,0,0,0,0,0,0,0,0,0,0,2.0766,2.0718,2.0835,2.0827,2.0827,2.0885,2.0886,2.0886,2.0856,2.0854,2.0851,2.0849,2.0901,2.0905,2.0909,2.0979,0,0,2.0922,2.0924,0,0,0,0,0,0,0,0,2.0763,2.077,2.0828,2.0828,2.0828,2.0862,2.0862,2.0918,2.0856,2.0845,2.0851,2.0848,2.0891,2.0896,2.091,2.0981,2.0984,2.0922,2.0925,2.0927,2.0928,0,0,0,0,0,0,0,2.0759,2.0768,2.0855,2.0829,2.0829,2.0821,2.0826,2.0872,2.088,2.0846,2.0844,2.085,2.0891,2.0906,2.0911,2.0984,2.0922,2.0926,2.0929,2.093,2.1111,2.1113,0,0,0,0,0,0,2.0756,2.0765,2.0854,2.0857,2.0789,2.0825,2.083,2.0853,2.0879,2.0881,2.0852,2.0848,2.09,2.0907,2.0913,2.0993,2.0927,2.0931,2.0933,2.1108,2.1111,2.1114,0,0,0,0,0,0,2.0754,2.0765,2.0852,2.081,2.0821,2.0829,2.0855,2.0855,2.087,2.0884,2.0885,2.0866,2.0899,2.0907,2.0962,2.0994,2.0932,2.0936,2.1106,2.1109,2.1112,2.1155,0,0,0,0,0,0,2.0751,2.0764,2.0791,2.0811,2.0823,2.09,2.0857,2.0858,2.0877,2.0873,2.0898,2.0899,2.0898,2.0956,2.0966,2.0999,2.094,2.1103,2.1107,2.1111,2.1151,2.116,2.1167,0,0,0,0,0,2.0746,2.0802,2.0792,2.0803,2.0857,2.0902,2.0909,2.0905,2.088,2.0907,2.0915,2.0899,2.099,2.0962,2.0973,2.1008,2.1101,2.1106,2.1111,2.1147,2.1158,2.1167,0,0,0,0,0,0,2.0787,2.0805,2.0794,2.0858,2.0878,2.0896,2.093,2.0917,2.0946,2.0941,2.0936,2.0942,2.0998,2.1009,2.0977,2.1074,2.1041,2.1049,2.1065,2.1075,2.1083,2.1079,2.0943,0,0,0,0,0,2.0803,2.0838,2.0852,2.0907,2.0917,2.0922,2.0942,2.0937,2.0958,2.0967,2.0979,2.1,2.1033,2.1055,2.1087,2.1153,2.1156,2.1182,2.119,2.1197,2.1203,2.1235,2.1246,2.1131,2.1131,2.1131,0,0,2.0837,2.0851,2.0874,2.0915,2.093,2.0966,2.093,2.097,2.0995,2.0973,2.1024,2.1034,2.1057,2.1116,2.1144,2.1127,2.1236,2.1204,2.1209,2.1211,2.1242,2.1253,2.1262,2.1134,2.1134,2.1133,0,0,2.0917,2.0932,2.0977,2.0993,2.1015,2.1018,2.1029,2.1048,2.1053,2.1104,2.1087,2.1118,2.1176,2.1192,2.1208,2.129,2.1275,2.1301,2.1343,2.1374,2.1383,2.1391,2.1418,2.1428,2.1307,2.1307,2.1307,0,2.0956,2.1008,2.1003,2.1043,2.106,2.104,2.1086,2.1101,2.1134,2.1146,2.1127,2.1197,2.1212,2.1273,2.1292,2.1307,2.1318,2.1297,2.1382,2.139,2.1398,2.1423,2.1433,2.131,2.131,2.1309,2.1309,0,2.1054,2.1091,2.1125,2.1154,2.1176,2.1219,2.1219,2.1242,2.1235,2.1238,2.1289,2.1306,2.1338,2.1353,2.1348,2.1413,2.1401,2.1383,2.1349,2.1411,2.1435,2.1445,2.1314,2.1313,2.1312,2.1311,0,0,2.1161,2.1184,2.1197,2.1208,2.1231,2.1259,2.13,2.1331,2.1349,2.1372,2.1404,2.1452,2.1434,2.1452,2.1448,2.1476,2.1536,2.1454,2.1454,2.1466,2.1605,2.1617,2.1629,2.1527,2.1529,2.153,2.1602,0,2.1239,2.1309,2.1304,2.137,2.1402,2.1382,2.1418,2.1435,2.1439,2.1467,2.1472,2.1504,2.148,2.149,2.1517,2.1523,2.1564,2.1518,2.1556,2.1557,2.1548,2.1641,2.1655,2.1722,2.1612,2.1613,2.1615,0,2.134,2.1363,2.1432,2.1446,2.1459,2.1491,2.1517,2.1544,2.1563,2.1564,2.1582,2.1573,2.1613,2.1579,2.1633,2.1602,2.1617,2.1622,2.1625,2.1626,2.1588,2.1643,2.1744,2.1753,2.1629,2.1628,2.1627,0,2.1406,2.1455,2.1502,2.1513,2.1532,2.1554,2.1563,2.158,2.1597,2.162,2.1631,2.1659,2.1674,2.1696,2.1693,2.1669,2.1747,2.1714,2.1747,2.1747,2.1763,2.1762,2.1865,2.1777,2.1777,2.1777,2.1776,0,2.1492,2.1534,2.1531,2.156,2.1605,2.1599,2.1645,2.1651,2.1666,2.1694,2.168,2.1707,2.1704,2.1731,2.173,2.1772,2.178,2.1781,2.1779,2.1781,2.178,2.1789,2.1783,2.1779,2.1779,2.1778,2.1778,0,2.1573,2.1574,2.1622,2.1636,2.164,2.1673,2.1684,2.171,2.1713,2.1749,2.1757,2.1761,2.1792,2.1792,2.1828,2.1827,2.1878,2.1873,2.1872,2.187,2.1902,2.1898,2.2013,2.2026,2.1932,2.1933,2.1934,0,2.1627,2.1658,2.1674,2.1692,2.1701,2.1731,2.1748,2.1743,2.1761,2.1783,2.1806,2.1836,2.1858,2.1908,2.1914,2.1941,2.1934,2.1973,2.1938,2.1937,2.1932,2.1929,2.193,2.1979,2.198,2.1981,2.1982,0,2.1721,2.1719,2.1744,2.1768,2.1789,2.1808,2.1826,2.1842,2.1838,2.186,2.189,2.1908,2.1943,2.1971,2.1996,2.2005,2.1992,2.1992,2.2001,2.2002,2.1998,2.1997,2.1887,2.199,2.1989,2.1988,2.1988,2.1987,2.1788,2.1813,2.1828,2.1855,2.1868,2.1884,2.1908,2.1913,2.1939,2.1966,2.1962,2.1995,2.2011,2.2043,2.2054,2.2079,2.2066,2.2079,2.2082,2.2085,2.2087,2.1996,2.2084,2.2084,2.2084,2.2084,2.2083,0,2.1878,2.1886,2.1912,2.1936,2.1957,2.1943,2.1961,2.198,2.2009,2.2024,2.2047,2.208,2.2107,2.2115,2.214,2.2159,2.2153,2.2166,2.2163,2.2165,2.2099,2.2087,2.2169,2.2169,2.2169,2.2169,2.2169,2.2169,2.1927,2.1969,2.1968,2.2015,2.2023,2.2055,2.2066,2.2081,2.2092,2.213,2.2152,2.2157,2.2168,2.2194,2.2217,2.2219,2.2228,2.2242,2.2241,2.2179,2.217,2.2162,2.2151,2.2245,2.2245,2.2304,2.2305,2.2305]}]]